Date String (YYYY-MM-DD hh:mm:ss) UTC,Instrument flags,absolute air pressure of the measurement (hPa),sample flow rate (lpm),inlet stack bypass flow (lpm),air temperature of the measurement (°C),ambient temperature measured by the external sensor (°C),aerosol sample conditioner tube jacket temperature (°C),OPC LED temperature (°C),internal box temperature (°C),relative humidity of the measurement (%),span deviation,mass concentration of particles derived from Lorenz-Mie calculation of OPC scattering (μg/m³),mass concentration of particles derived from Lorenz-Mie calculation of OPC scattering (μg/m³),mass concentration of particles derived from Lorenz-Mie calculation of OPC scattering (μg/m³)
DateTimeUTC,F1_M11,P_M11,Q1_M11,Q2_M11,T1_M11,T2_M11,T3_M11,T4_M11,T5_M11,U1_M11,ZSPAN_M11,X0_M11,X2_M11,X1_M11
2024-04-06 10:00:00,SystemResetWarning,0809.0,4.99,000.00,022.9,022.0,000.0,031.5,024.7,015.3,0000.0,0034.78,0006.48,0002.04
2024-04-06 10:01:00,SystemResetWarning,0809.0,5.00,000.00,022.9,022.0,000.0,031.5,024.8,015.1,0000.0,0033.69,0006.43,0002.04
2024-04-06 10:02:00,SystemResetWarning,0809.1,5.01,000.00,022.9,022.0,000.0,031.5,024.7,015.0,0000.0,0032.60,0006.44,0002.04
2024-04-06 10:03:00,SystemResetWarning,0809.0,5.01,000.00,022.9,022.0,000.0,031.5,024.7,015.1,0000.0,0032.92,0006.51,0002.06
2024-04-06 10:04:00,SystemResetWarning,0809.0,5.01,000.00,022.9,022.0,000.0,031.5,024.8,015.0,0000.0,0033.70,0006.54,0002.06
2024-04-06 10:05:00,SystemResetWarning,0809.1,4.99,000.00,022.9,022.0,000.0,031.5,024.8,015.0,0000.0,0034.24,0006.55,0002.04
2024-04-06 10:06:00,SystemResetWarning,0809.1,4.99,000.00,022.9,022.0,000.0,031.5,024.8,014.9,0000.0,0032.98,0006.62,0002.05
2024-04-06 10:07:00,SystemResetWarning,0809.1,4.98,000.00,022.9,022.0,000.0,031.5,024.8,014.9,0000.0,0032.40,0006.75,0002.08
2024-04-06 10:08:00,SystemResetWarning,0809.0,5.00,000.00,022.9,022.0,000.0,031.5,024.7,014.9,0000.0,0032.59,0006.82,0002.09
2024-04-06 10:09:00,SystemResetWarning,0809.0,5.01,000.00,022.9,022.0,000.0,031.5,024.7,014.9,0000.0,0032.47,0006.72,0002.07
2024-04-06 10:10:00,SystemResetWarning,0809.0,5.00,000.00,022.9,022.0,000.0,031.5,024.7,014.8,0000.0,0032.24,0006.70,0002.07
2024-04-06 10:11:00,SystemResetWarning,0809.0,4.99,000.00,022.9,022.0,000.0,031.5,024.7,014.8,0000.0,0031.99,0006.71,0002.10
2024-04-06 10:12:00,SystemResetWarning,0809.0,4.99,000.00,022.9,022.0,000.0,031.5,024.7,014.8,0000.0,0032.46,0006.84,0002.12
2024-04-06 10:13:00,SystemResetWarning,0809.0,5.00,000.00,022.9,022.0,000.0,031.5,024.7,014.7,0000.0,0033.90,0006.94,0002.12
2024-04-06 10:14:00,SystemResetWarning,0809.0,5.01,000.00,022.9,022.0,000.0,031.5,024.7,014.7,0000.0,0033.53,0007.01,0002.12
2024-04-06 10:15:00,SystemResetWarning,0808.9,5.00,000.00,022.9,022.0,000.0,031.5,024.7,014.6,0000.0,0033.60,0007.04,0002.17
2024-04-06 10:16:00,SystemResetWarning,0809.0,5.00,000.00,022.9,022.0,000.0,031.5,024.7,014.5,0000.0,0034.56,0007.11,0002.23
2024-04-06 10:17:00,SystemResetWarning,0809.0,4.99,000.00,022.9,021.9,000.0,031.5,024.7,014.5,0000.0,0035.50,0007.15,0002.26
2024-04-06 10:18:00,SystemResetWarning,0809.0,4.99,000.00,022.9,021.9,000.0,031.5,024.7,014.5,0000.0,0036.06,0007.22,0002.28
2024-04-06 10:19:00,SystemResetWarning,0809.0,5.00,000.00,022.9,022.0,000.0,031.5,024.7,014.5,0000.0,0036.49,0007.30,0002.30
2024-04-06 10:20:00,SystemResetWarning,0809.0,5.01,000.00,022.9,021.9,000.0,031.5,024.7,014.5,0000.0,0036.67,0007.35,0002.28
2024-04-06 10:21:00,SystemResetWarning,0809.0,5.00,000.00,022.8,021.9,000.0,031.5,024.7,014.5,0000.0,0037.97,0007.39,0002.28
2024-04-06 10:22:00,SystemResetWarning,0808.9,5.01,000.00,022.8,021.9,000.0,031.5,024.7,014.5,0000.0,0038.10,0007.33,0002.27
2024-04-06 10:23:00,SystemResetWarning,0808.9,5.00,000.00,022.8,021.9,000.0,031.5,024.7,014.4,0000.0,0037.83,0007.24,0002.28
2024-04-06 10:24:00,SystemResetWarning,0808.9,4.99,000.00,022.8,021.9,000.0,031.5,024.7,014.4,0000.0,0037.53,0007.11,0002.28
2024-04-06 10:25:00,SystemResetWarning,0808.8,5.00,000.00,022.8,021.9,000.0,031.5,024.7,014.4,0000.0,0038.70,0007.03,0002.28
2024-04-06 10:26:00,SystemResetWarning,0808.9,5.01,000.00,022.8,021.9,000.0,031.5,024.7,014.3,0000.0,0039.64,0007.15,0002.27
2024-04-06 10:27:00,SystemResetWarning,0808.8,5.00,000.00,022.8,021.9,000.0,031.5,024.7,014.3,0000.0,0038.65,0007.10,0002.25
2024-04-06 10:28:00,SystemResetWarning,0808.8,4.99,000.00,022.8,021.9,000.0,031.5,024.7,014.2,0000.0,0037.36,0007.15,0002.24
2024-04-06 10:29:00,SystemResetWarning,0808.8,4.99,000.00,022.8,021.9,000.0,031.5,024.7,014.4,0000.0,0036.81,0007.23,0002.24
2024-04-06 10:30:00,SystemResetWarning,0808.7,5.01,000.00,022.8,021.9,000.0,031.4,024.7,014.2,0000.0,0038.36,0007.22,0002.25
2024-04-06 10:31:00,SystemResetWarning,0808.7,5.01,000.00,022.8,021.9,000.0,031.4,024.7,014.0,0000.0,0041.81,0007.26,0002.28
2024-04-06 10:32:00,SystemResetWarning,0808.7,4.99,000.00,022.8,021.9,000.0,031.4,024.6,014.2,0000.0,0041.37,0007.32,0002.32
2024-04-06 10:33:00,SystemResetWarning,0808.6,4.99,000.00,022.8,021.9,000.0,031.4,024.6,013.5,0000.0,0040.65,0007.41,0002.33
2024-04-06 10:34:00,SystemResetWarning,0808.7,5.01,000.00,022.8,021.9,000.0,031.4,024.7,013.7,0000.0,0041.15,0007.54,0002.34
2024-04-06 10:35:00,SystemResetWarning,0808.7,5.00,000.00,022.8,021.9,000.0,031.4,024.7,013.6,0000.0,0042.04,0007.70,0002.34
2024-04-06 10:36:00,SystemResetWarning,0808.6,5.01,000.00,022.8,021.9,000.0,031.4,024.7,013.6,0000.0,0042.71,0007.87,0002.36
2024-04-06 10:37:00,SystemResetWarning,0808.6,5.00,000.00,022.8,021.9,000.0,031.4,024.6,013.4,0000.0,0042.45,0007.95,0002.39
2024-04-06 10:38:00,SystemResetWarning,0808.6,5.00,000.00,022.8,021.9,000.0,031.4,024.6,013.7,0000.0,0043.60,0008.04,0002.41
2024-04-06 10:39:00,SystemResetWarning,0808.7,5.00,000.00,022.8,021.9,000.0,031.4,024.6,013.5,0000.0,0044.72,0008.13,0002.45
2024-04-06 10:40:00,SystemResetWarning,0808.7,4.99,000.00,022.8,021.9,000.0,031.4,024.6,013.7,0000.0,0044.88,0008.17,0002.45
2024-04-06 10:41:00,SystemResetWarning,0808.7,4.99,000.00,022.8,021.9,000.0,031.4,024.6,013.9,0000.0,0044.77,0008.27,0002.45
2024-04-06 10:42:00,SystemResetWarning,0808.7,5.01,000.00,022.8,021.9,000.0,031.4,024.6,013.9,0000.0,0042.84,0008.30,0002.44
2024-04-06 10:43:00,SystemResetWarning,0808.7,5.01,000.00,022.8,021.9,000.0,031.4,024.6,014.0,0000.0,0043.60,0008.32,0002.43
2024-04-06 10:44:00,SystemResetWarning,0808.8,4.99,000.00,022.8,021.9,000.0,031.4,024.6,013.5,0000.0,0044.89,0008.38,0002.44
2024-04-06 10:45:00,SystemResetWarning,0808.9,4.99,000.00,022.8,021.8,000.0,031.4,024.6,013.7,0000.0,0044.81,0008.38,0002.44
2024-04-06 10:46:00,SystemResetWarning,0809.0,5.00,000.00,022.8,021.8,000.0,031.4,024.6,013.8,0000.0,0044.08,0008.35,0002.43
2024-04-06 10:47:00,SystemResetWarning,0809.0,5.01,000.00,022.8,021.8,000.0,031.4,024.6,014.0,0000.0,0043.96,0008.31,0002.43
2024-04-06 10:48:00,SystemResetWarning,0809.0,5.01,000.00,022.8,021.8,000.0,031.4,024.6,014.4,0000.0,0043.55,0008.26,0002.42
2024-04-06 10:49:00,SystemResetWarning,0809.0,4.98,000.00,022.8,021.8,000.0,031.4,024.6,015.2,0000.0,0043.74,0008.07,0002.38
2024-04-06 10:50:00,SystemResetWarning,0809.0,5.00,000.00,022.7,021.8,000.0,031.4,024.6,015.8,0000.0,0042.84,0007.90,0002.33
2024-04-06 10:51:00,SystemResetWarning,0809.0,5.00,000.00,022.7,021.8,000.0,031.4,024.6,016.2,0000.0,0040.95,0007.59,0002.28
2024-04-06 10:52:00,SystemResetWarning,0808.9,5.01,000.00,022.7,021.8,000.0,031.4,024.6,016.5,0000.0,0039.47,0007.20,0002.21
2024-04-06 10:53:00,SystemResetWarning,0809.0,5.01,000.00,022.7,021.8,000.0,031.4,024.5,016.6,0000.0,0037.95,0006.90,0002.14
2024-04-06 10:54:00,SystemResetWarning,0809.0,5.00,000.00,022.7,021.8,000.0,031.4,024.5,016.7,0000.0,0036.28,0006.64,0002.07
2024-04-06 10:55:00,SystemResetWarning,0809.0,4.99,000.00,022.7,021.8,000.0,031.4,024.6,016.8,0000.0,0034.40,0006.35,0001.97
2024-04-06 10:56:00,SystemResetWarning,0809.0,5.00,000.00,022.7,021.8,000.0,031.4,024.6,016.8,0000.0,0031.94,0005.98,0001.89
2024-04-06 10:57:00,SystemResetWarning,0809.0,5.01,000.00,022.7,021.8,000.0,031.4,024.6,016.7,0000.0,0029.84,0005.64,0001.79
2024-04-06 10:58:00,SystemResetWarning,0809.1,5.01,000.00,022.7,021.8,000.0,031.4,024.5,016.7,0000.0,0026.23,0005.25,0001.67
2024-04-06 10:59:00,SystemResetWarning,0809.0,4.99,000.00,022.7,021.8,000.0,031.3,024.5,016.8,0000.0,0023.86,0004.87,0001.55
